When you browse on this site, cookies collect data to enhance your experience and personalize the content and advertising you see.
Visit our Privacy Policy to learn more. By continuing to use the site, you agree to this use of cookies and data.
  • In Switzerland
  • List of Countries
  • For 7 days
  • Water Temperature
  • Weather Map
  • Weather Widgets
  • user-avatar
    Login

    Hourly Weather Saurimo

    Today, 19 October, Saturday

    Time Temperature Precipitation Wind Pressure Humidity
    00:00 +21°C° 0 mm 1 mps 669 mmHg 89%
    01:00 +20°C° 0 mm 1 mps 669 mmHg 91%
    02:00 +20°C° 0 mm 1 mps 668 mmHg 92%
    03:00 +20°C° 0 mm 1 mps 668 mmHg 94%
    04:00 +19°C° 0 mm 1 mps 668 mmHg 95%
    05:00 +21°C° 0 mm 1 mps 669 mmHg 89%
    06:00 +20°C° 0 mm 0 mps 670 mmHg 83%
    07:00 +22°C° 0 mm 0 mps 671 mmHg 78%
    08:00 +24°C° 0 mm 0 mps 671 mmHg 70%
    09:00 +29°C° 0 mm 1 mps 671 mmHg 62%
    10:00 +31°C° 0 mm 1 mps 672 mmHg 53%
    11:00 +32°C° 0 mm 1 mps 671 mmHg 50%
    12:00 +32°C° 0 mm 1 mps 670 mmHg 47%
    13:00 +32°C° 0 mm 1 mps 670 mmHg 44%
    14:00 +32°C° 0 mm 1 mps 669 mmHg 45%
    15:00 +31°C° 0 mm 1 mps 669 mmHg 47%
    16:00 +31°C° 0 mm 1 mps 668 mmHg 48%
    17:00 +28°C° 0.1 mm 1 mps 668 mmHg 59%
    18:00 +26°C° 0.1 mm 2 mps 668 mmHg 70%
    19:00 +23°C° 0.1 mm 2 mps 668 mmHg 80%
    20:00 +21°C° 0 mm 2 mps 669 mmHg 83%
    21:00 +21°C° 0 mm 2 mps 669 mmHg 86%
    22:00 +21°C° 0 mm 1 mps 669 mmHg 88%
    23:00 +21°C° 0 mm 1 mps 669 mmHg 90%

    Tomorrow, 20 October, Sunday

    Time Temperature Precipitation Wind Pressure Humidity
    00:00 +21°C° 0 mm 1 mps 668 mmHg 92%
    01:00 +20°C° 0 mm 1 mps 668 mmHg 93%
    02:00 +20°C° 0 mm 1 mps 668 mmHg 93%
    03:00 +20°C° 0 mm 1 mps 668 mmHg 94%
    04:00 +19°C° 0 mm 1 mps 668 mmHg 94%
    05:00 +20°C° 0 mm 1 mps 669 mmHg 89%
    06:00 +22°C° 0 mm 1 mps 670 mmHg 85%
    07:00 +23°C° 0 mm 1 mps 671 mmHg 80%
    08:00 +25°C° 0 mm 1 mps 671 mmHg 71%
    09:00 +28°C° 0 mm 1 mps 671 mmHg 62%
    10:00 +30°C° 0 mm 1 mps 672 mmHg 54%
    11:00 +32°C° 0 mm 1 mps 671 mmHg 50%
    12:00 +33°C° 0 mm 1 mps 671 mmHg 46%
    13:00 +32°C° 0 mm 0 mps 670 mmHg 42%
    14:00 +33°C° 0 mm 1 mps 670 mmHg 44%
    15:00 +32°C° 0 mm 1 mps 669 mmHg 46%
    16:00 +31°C° 0 mm 1 mps 668 mmHg 48%
    17:00 +29°C° 0.2 mm 1 mps 668 mmHg 57%
    18:00 +26°C° 0.2 mm 2 mps 669 mmHg 65%
    19:00 +22°C° 0.2 mm 3 mps 669 mmHg 73%
    20:00 +23°C° 0.2 mm 2 mps 669 mmHg 77%
    21:00 +21°C° 0.2 mm 2 mps 669 mmHg 81%
    22:00 +21°C° 0.2 mm 2 mps 669 mmHg 85%
    23:00 +20°C° 0 mm 2 mps 669 mmHg 88%

    Day after tomorrow, 21 October, Monday

    Time Temperature Precipitation Wind Pressure Humidity
    00:00 +21°C° 0 mm 1 mps 668 mmHg 91%
    01:00 +20°C° 0 mm 1 mps 668 mmHg 94%
    02:00 +20°C° 0 mm 1 mps 668 mmHg 95%
    03:00 +20°C° 0 mm 1 mps 668 mmHg 96%
    04:00 +20°C° 0 mm 1 mps 668 mmHg 97%
    05:00 +20°C° 0 mm 1 mps 669 mmHg 93%
    06:00 +21°C° 0 mm 1 mps 670 mmHg 89%
    07:00 +21°C° 0 mm 2 mps 671 mmHg 86%
    08:00 +24°C° 0 mm 2 mps 671 mmHg 77%
    09:00 +26°C° 0 mm 2 mps 671 mmHg 68%
    10:00 +28°C° 0 mm 2 mps 672 mmHg 59%
    11:00 +29°C° 0 mm 2 mps 671 mmHg 56%
    12:00 +30°C° 0 mm 2 mps 670 mmHg 54%
    13:00 +31°C° 0 mm 2 mps 670 mmHg 51%
    14:00 +30°C° 0.5 mm 2 mps 669 mmHg 58%
    15:00 +29°C° 0.5 mm 2 mps 668 mmHg 64%
    16:00 +27°C° 0.5 mm 2 mps 667 mmHg 71%
    17:00 +26°C° 0 mm 2 mps 668 mmHg 76%
    18:00 +24°C° 0 mm 1 mps 668 mmHg 81%
    19:00 +23°C° 0 mm 1 mps 668 mmHg 85%
    20:00 +23°C° 0 mm 1 mps 668 mmHg 87%
    21:00 +22°C° 0 mm 1 mps 669 mmHg 89%
    22:00 +22°C° 0 mm 1 mps 669 mmHg 91%
    23:00 +21°C° 0 mm 1 mps 668 mmHg 93%

    22 October, Tuesday

    Time Temperature Precipitation Wind Pressure Humidity
    00:00 +21°C° 0 mm 1 mps 668 mmHg 95%
    01:00 +21°C° 0 mm 1 mps 668 mmHg 97%
    02:00 +20°C° 0.2 mm 1 mps 668 mmHg 97%
    03:00 +20°C° 0.2 mm 1 mps 668 mmHg 97%
    04:00 +20°C° 0.2 mm 1 mps 668 mmHg 97%
    05:00 +20°C° 0 mm 2 mps 668 mmHg 93%
    06:00 +21°C° 0 mm 2 mps 669 mmHg 89%
    07:00 +22°C° 0 mm 3 mps 669 mmHg 85%
    08:00 +25°C° 0 mm 3 mps 670 mmHg 76%
    09:00 +27°C° 0 mm 3 mps 670 mmHg 66%
    10:00 +30°C° 0 mm 2 mps 670 mmHg 56%
    11:00 +31°C° 0 mm 2 mps 670 mmHg 52%
    12:00 +32°C° 0 mm 2 mps 669 mmHg 47%
    13:00 +34°C° 0 mm 2 mps 668 mmHg 42%
    14:00 +32°C° 0 mm 2 mps 668 mmHg 47%
    15:00 +31°C° 0 mm 2 mps 667 mmHg 51%
    16:00 +30°C° 0 mm 2 mps 667 mmHg 55%
    17:00 +28°C° 0 mm 2 mps 667 mmHg 62%
    18:00 +26°C° 0 mm 2 mps 667 mmHg 69%
    19:00 +24°C° 0 mm 2 mps 668 mmHg 76%
    20:00 +23°C° 0.1 mm 1 mps 668 mmHg 80%
    21:00 +23°C° 0.1 mm 1 mps 668 mmHg 85%
    22:00 +22°C° 0.1 mm 1 mps 668 mmHg 90%
    23:00 +21°C° 1 mm 1 mps 668 mmHg 92%

    23 October, Wednesday

    Time Temperature Precipitation Wind Pressure Humidity
    00:00 +21°C° 1 mm 1 mps 668 mmHg 94%
    01:00 +21°C° 1 mm 1 mps 667 mmHg 97%
    02:00 +21°C° 0.9 mm 1 mps 667 mmHg 96%
    03:00 +21°C° 0.9 mm 1 mps 667 mmHg 96%
    04:00 +20°C° 0.9 mm 1 mps 667 mmHg 96%
    05:00 +21°C° 0.2 mm 1 mps 668 mmHg 94%
    06:00 +22°C° 0.2 mm 1 mps 668 mmHg 92%
    07:00 +23°C° 0.2 mm 1 mps 669 mmHg 90%
    08:00 +25°C° 0 mm 1 mps 669 mmHg 81%
    09:00 +27°C° 0 mm 2 mps 669 mmHg 72%
    10:00 +29°C° 0 mm 2 mps 669 mmHg 62%
    11:00 +30°C° 0 mm 2 mps 669 mmHg 57%
    12:00 +32°C° 0 mm 2 mps 669 mmHg 51%
    13:00 +33°C° 0 mm 1 mps 668 mmHg 45%
    14:00 +33°C° 0 mm 1 mps 668 mmHg 47%
    15:00 +32°C° 0 mm 1 mps 667 mmHg 50%
    16:00 +32°C° 0 mm 1 mps 666 mmHg 52%
    17:00 +29°C° 0 mm 1 mps 667 mmHg 58%
    18:00 +27°C° 0 mm 1 mps 667 mmHg 64%
    19:00 +25°C° 0 mm 1 mps 667 mmHg 70%
    20:00 +24°C° 0.4 mm 1 mps 667 mmHg 77%
    21:00 +23°C° 0.4 mm 1 mps 668 mmHg 84%
    22:00 +22°C° 0.4 mm 1 mps 668 mmHg 90%
    23:00 +21°C° 1.9 mm 2 mps 668 mmHg 92%

    24 October, Thursday

    Time Temperature Precipitation Wind Pressure Humidity
    00:00 +20°C° 1.9 mm 2 mps 668 mmHg 94%
    01:00 +20°C° 1.9 mm 2 mps 668 mmHg 96%
    02:00 +20°C° 1.5 mm 2 mps 668 mmHg 95%
    03:00 +20°C° 1.5 mm 2 mps 668 mmHg 95%
    04:00 +21°C° 1.5 mm 1 mps 668 mmHg 94%
    05:00 +21°C° 1 mm 1 mps 669 mmHg 95%
    06:00 +21°C° 1 mm 1 mps 669 mmHg 95%
    07:00 +19°C° 1 mm 0 mps 670 mmHg 96%
    08:00 +22°C° 0.4 mm 1 mps 670 mmHg 91%
    09:00 +23°C° 0.4 mm 2 mps 670 mmHg 87%
    10:00 +24°C° 0.4 mm 2 mps 670 mmHg 82%
    11:00 +26°C° 0 mm 2 mps 670 mmHg 74%
    12:00 +28°C° 0 mm 2 mps 669 mmHg 66%
    13:00 +29°C° 0 mm 2 mps 669 mmHg 58%
    14:00 +29°C° 0.2 mm 2 mps 668 mmHg 61%
    15:00 +28°C° 0.2 mm 2 mps 668 mmHg 64%
    16:00 +28°C° 0.2 mm 2 mps 668 mmHg 67%
    17:00 +26°C° 1.4 mm 2 mps 668 mmHg 75%
    18:00 +24°C° 1.4 mm 1 mps 668 mmHg 83%
    19:00 +22°C° 1.4 mm 1 mps 668 mmHg 92%
    20:00 +22°C° 0.1 mm 1 mps 669 mmHg 92%
    21:00 +22°C° 0.1 mm 1 mps 669 mmHg 92%
    22:00 +20°C° 0.1 mm 0 mps 670 mmHg 93%
    23:00 +21°C° 0.4 mm 1 mps 669 mmHg 93%
    Show more